Flag Weather past 2 weeks in Monaco, Monaco

Now
64 °F

Broken clouds.


Feels Like: 64 °F
Forecast: 56 / 61 °F
Wind: 28 mph from East

Location: Nice Airport

Current Time: Nov 28, 2014 at 3:59:29 PM

Latest Report: Nov 28, 2014 at 3:30 PM


Visibility: N/A

Pressure: 29.68 "Hg

Humidity: 68%

Dew point: 54 °F

Location of MonacoLocation

Historic Weather in Monaco — Graph

°F

Monaco temperature yesterday

Maximum temperature yesterday: 61 °F (at 12:00 AM)
Minimum temperature yesterday: 55 °F (at 5:30 AM)
Average temperature yesterday: 59 °F

Past Weeks' High & Low Weather Summary

 TemperatureHumidityPressure
High68 °F (Nov 23, 12:00 PM)94% (Nov 14, 11:00 PM)30.24 "Hg (Nov 14, 11:00 PM)
Low46 °F (Nov 18, 12:42 AM)42% (Nov 19, 12:00 PM)29.50 "Hg (Nov 15, 1:30 PM)
Average57 °F74%29.95 "Hg
* Reported Nov 13 3:00 PM — Nov 28 3:00 PM, Monaco, Weather by CustomWeather, © 2014

Note: Actual official high and low records may vary slightly from our data, if they occured in-between our weather recording intervals... More about our weather records

Advertising

Monaco weather history for previous 24 hours

 ConditionsComfort  
Time TempWeatherWind HumidityBarometerVisibility
3:00 PM
Nov 28
64 °FBroken clouds.29 mph73%29.68 "HgN/A
2:30 PM64 °FBroken clouds.29 mph73%29.68 "HgN/A
2:00 PM64 °FBroken clouds.30 mph68%29.68 "HgN/A
1:30 PM64 °FBroken clouds.28 mph68%29.68 "HgN/A
12:54 PM64 °FBroken clouds.29 mph68%29.71 "HgN/A
12:21 PM64 °FBroken clouds.30 mph68%29.71 "HgN/A
12:00 PM64 °FPartly sunny.31 mph68%29.71 "HgN/A
11:21 AM64 °FPartly sunny.31 mph68%29.71 "HgN/A
10:53 AM64 °FPartly sunny.29 mph73%29.74 "HgN/A
10:41 AM63 °FLight rain. Partly sunny.30 mph77%29.74 "HgN/A
10:08 AM63 °FLight rain. Partly sunny.32 mph77%29.74 "Hg5 mi
9:30 AM64 °FLight rain. Partly sunny.32 mph73%29.71 "HgN/A
9:00 AM64 °FBroken clouds.28 mph68%29.74 "HgN/A
8:30 AM64 °FBroken clouds.28 mph68%29.74 "HgN/A
7:51 AM64 °FBroken clouds.28 mph68%29.71 "HgN/A
7:30 AM64 °FPassing clouds.31 mph68%29.71 "HgN/A
7:00 AM64 °FPassing clouds.30 mph64%29.71 "HgN/A
6:30 AM64 °FPassing clouds.22 mph68%29.71 "HgN/A
6:00 AM59 °FPassing clouds.12 mph72%29.71 "HgN/A
5:30 AM55 °FPassing clouds.5 mph82%29.74 "HgN/A
4:30 AM57 °FPassing clouds.8 mph82%29.74 "HgN/A
4:00 AM55 °FPassing clouds.9 mph82%29.74 "HgN/A
3:30 AM57 °FPassing clouds.9 mph77%29.74 "HgN/A
3:00 AM57 °FPassing clouds.12 mph82%29.77 "HgN/A
2:30 AM55 °FPassing clouds.9 mph88%29.80 "HgN/A
2:00 AM57 °FRain. Passing clouds.10 mph82%29.80 "HgN/A
1:30 AM55 °FLight rain. Passing clouds.7 mph88%29.80 "HgN/A
1:00 AM55 °FPassing clouds.3 mph88%29.80 "HgN/A
12:30 AM57 °FPassing clouds.10 mph82%29.80 "HgN/A
12:00 AM55 °FPassing clouds.10 mph88%29.83 "HgN/A
11:30 PM
Nov 27
57 °FPassing clouds.8 mph82%29.80 "HgN/A
11:00 PM57 °FPassing clouds.7 mph82%29.80 "HgN/A
10:30 PM57 °FPassing clouds.6 mph82%29.83 "HgN/A
10:00 PM59 °FPassing clouds.7 mph77%29.83 "HgN/A
9:30 PM57 °FPassing clouds.8 mph82%29.83 "HgN/A
8:30 PM59 °FPassing clouds.12 mph77%29.83 "HgN/A
8:00 PM57 °FPassing clouds.8 mph82%29.83 "HgN/A
7:30 PM59 °FPartly cloudy.10 mph77%29.86 "HgN/A
7:00 PM59 °FPartly cloudy.9 mph82%29.86 "HgN/A
6:30 PM57 °FPartly cloudy.6 mph88%29.83 "HgN/A
6:00 PM57 °FPartly cloudy.7 mph88%29.83 "HgN/A
5:30 PM57 °FRain showers. Partly cloudy.8 mph82%29.86 "Hg4 mi
5:07 PM59 °FRain showers. Passing clouds.9 mph77%29.86 "Hg3 mi
4:30 PM61 °FBroken clouds.12 mph72%29.83 "HgN/A
4:00 PM61 °FBroken clouds.13 mph72%29.83 "HgN/A
3:30 PM61 °FScattered showers. Broken clouds.13 mph72%29.83 "HgN/A
3:00 PM61 °FBroken clouds.13 mph72%29.83 "HgN/A
Weather by CustomWeather, © 2014

See weather overviewHow to use our weather pages